Home   Weather   Fairfield   Past weeks
Flag for Barbados

Past Weather in Fairfield, Barbados — Yesterday and Last 2 Weeks

Now
84 °F

Rain. Scattered clouds.


Feels Like: 92 °F
Forecast: 89 / 82 °F
Wind: 22 mph from Southeast

Location: Grantley Adams
Current Time: Sep 28, 2020 at 12:41:54 pm
Latest Report: Sep 28, 2020 at 12:00 pm
Visibility: N/A
Pressure29.89 "Hg
Humidity: 74%
Dew Point: 75 °F
Location of FairfieldLocation

Past Weather in Fairfield — Graph

°F

Fairfield Temperature Yesterday

Maximum temperature yesterday: 86 °F (at 1:00 pm)
Minimum temperature yesterday: 79 °F (at 3:00 am)
Average temperature yesterday: 82 °F

High & Low Weather Summary for the Past Weeks

 TemperatureHumidityPressure
High91 °F (Sep 25, 12:00 pm)94% (Sep 17, 5:00 am)30.01 "Hg (Sep 17, 5:00 am)
Low75 °F (Sep 17, 5:00 am)55% (Sep 17, 12:00 pm)29.80 "Hg (Sep 16, 4:00 am)
Average84 °F76%29.89 "Hg
* Reported Sep 13 11:00 am — Sep 28 11:00 am, Fairfield. Weather by CustomWeather, © 2020

Note: Actual official high and low records may vary slightly from our data, if they occured in-between our weather recording intervals... More about our weather records

Fairfield Weather History for the Previous 24 Hours

Scroll right to see more
 ConditionsComfort  
Time TempWeatherWind HumidityBarometerVisibility
11:00 am
Mon, Sep 28
90 °FScattered showers. Passing clouds.18 mph67%29.89 "HgN/A
10:00 am90 °FScattered clouds.16 mph67%29.92 "HgN/A
9:00 am86 °FScattered clouds.17 mph75%29.89 "HgN/A
8:00 am84 °FScattered showers. Scattered clouds.14 mph79%29.89 "HgN/A
7:00 am84 °FRain showers. Scattered clouds.15 mph79%29.83 "HgN/A
6:00 am82 °FSprinkles. Scattered clouds.16 mph74%29.83 "HgN/A
5:00 am82 °FPassing clouds.16 mph79%29.80 "HgN/A
4:00 am82 °FPassing clouds.15 mph79%29.80 "HgN/A
3:00 am82 °FPassing clouds.16 mph79%29.80 "HgN/A
2:00 am82 °FScattered showers. Passing clouds.16 mph79%29.80 "HgN/A
1:00 am82 °FScattered showers. Passing clouds.17 mph79%29.83 "HgN/A
12:00 am82 °FScattered showers. Passing clouds.16 mph79%29.86 "HgN/A
11:00 pm
Sun, Sep 27
82 °FPassing clouds.15 mph79%29.86 "HgN/A
10:00 pm82 °FPassing clouds.14 mph79%29.86 "HgN/A
9:00 pm82 °FScattered showers. Passing clouds.16 mph79%29.86 "HgN/A
8:00 pm82 °FSprinkles. Passing clouds.14 mph79%29.83 "HgN/A
7:00 pm81 °FPassing clouds.10 mph84%29.80 "HgN/A
6:00 pm82 °FPassing clouds.9 mph84%29.80 "HgN/A
5:00 pm84 °FScattered clouds.14 mph74%29.80 "HgN/A
4:00 pm84 °FScattered clouds.10 mph74%29.80 "HgN/A
3:00 pm84 °FScattered clouds.9 mph74%29.80 "HgN/A
2:00 pm84 °FScattered showers. Passing clouds.9 mph74%29.80 "HgN/A
1:00 pm86 °FRain showers. Scattered clouds.15 mph75%29.83 "HgN/A
12:00 pm82 °FLight rain. Passing clouds.12 mph79%29.83 "HgN/A
Weather by CustomWeather, © 2020

See weather overview